TimeEDT,TemperatureF,Dew PointF,Humidity,Sea Level PressureIn,VisibilityMPH,Wind Direction,Wind SpeedMPH,Gust SpeedMPH,PrecipitationIn,Events,Conditions,WindDirDegrees,DateUTC
12:56 AM,57.0,53.1,87,30.24,7.0,East,4.6,-,N/A,,Overcast,100,2013-10-15 04:56:00
1:40 AM,53.6,51.8,94,30.24,5.0,East,4.6,-,N/A,,Scattered Clouds,100,2013-10-15 05:40:00
1:56 AM,55.0,52.0,89,30.23,6.0,East,4.6,-,N/A,,Clear,100,2013-10-15 05:56:00
2:56 AM,53.1,51.1,93,30.22,3.0,East,4.6,-,N/A,,Clear,100,2013-10-15 06:56:00
3:19 AM,53.6,51.8,94,30.22,1.8,ENE,3.5,-,N/A,,Mostly Cloudy,70,2013-10-15 07:19:00
3:28 AM,53.6,51.8,94,30.21,0.5,East,3.5,-,N/A,Fog,Fog,80,2013-10-15 07:28:00
3:35 AM,53.6,51.8,94,30.22,2.0,East,3.5,-,N/A,,Overcast,80,2013-10-15 07:35:00
3:46 AM,53.6,51.8,94,30.21,3.0,East,3.5,-,N/A,,Overcast,80,2013-10-15 07:46:00
3:56 AM,54.0,51.1,90,30.21,4.0,East,4.6,-,N/A,,Overcast,80,2013-10-15 07:56:00
4:56 AM,54.0,51.1,90,30.20,3.0,East,5.8,-,N/A,,Overcast,80,2013-10-15 08:56:00
5:56 AM,55.0,52.0,89,30.20,5.0,Calm,Calm,-,N/A,,Overcast,0,2013-10-15 09:56:00
6:56 AM,54.0,52.0,93,30.20,6.0,Calm,Calm,-,N/A,,Overcast,0,2013-10-15 10:56:00
7:40 AM,55.4,51.8,88,30.21,5.0,East,6.9,-,N/A,,Overcast,100,2013-10-15 11:40:00
7:56 AM,55.0,52.0,89,30.21,6.0,ESE,5.8,-,N/A,,Overcast,110,2013-10-15 11:56:00
8:56 AM,57.0,53.1,87,30.21,9.0,ESE,5.8,-,N/A,,Overcast,110,2013-10-15 12:56:00
9:56 AM,57.9,52.0,81,30.19,10.0,ESE,9.2,17.3,N/A,,Overcast,120,2013-10-15 13:56:00
10:56 AM,60.1,53.1,78,30.19,10.0,SE,8.1,-,N/A,,Overcast,130,2013-10-15 14:56:00
11:56 AM,60.1,53.1,78,30.17,10.0,SE,6.9,-,N/A,,Overcast,140,2013-10-15 15:56:00
12:56 PM,62.1,54.0,75,30.16,10.0,Variable,6.9,-,N/A,,Overcast,0,2013-10-15 16:56:00
1:56 PM,63.0,54.0,72,30.13,10.0,South,5.8,-,N/A,,Overcast,190,2013-10-15 17:56:00
2:33 PM,64.4,55.4,73,30.12,10.0,Variable,5.8,-,N/A,,Overcast,0,2013-10-15 18:33:00
2:56 PM,64.9,55.0,70,30.10,10.0,SE,4.6,-,N/A,,Scattered Clouds,140,2013-10-15 18:56:00
3:56 PM,66.9,55.0,66,30.07,10.0,SE,5.8,-,N/A,,Partly Cloudy,140,2013-10-15 19:56:00
4:56 PM,66.9,54.0,63,30.07,10.0,Variable,6.9,-,N/A,,Clear,0,2013-10-15 20:56:00
5:56 PM,66.0,55.0,68,30.06,10.0,Calm,Calm,-,N/A,,Overcast,0,2013-10-15 21:56:00
6:56 PM,64.0,53.1,67,30.06,10.0,SSE,4.6,-,N/A,,Clear,150,2013-10-15 22:56:00
7:56 PM,63.0,52.0,67,30.06,10.0,SE,6.9,-,N/A,,Partly Cloudy,140,2013-10-15 23:56:00
8:56 PM,62.1,50.0,65,30.04,10.0,SE,6.9,-,N/A,,Clear,140,2013-10-16 00:56:00
9:56 PM,61.0,48.9,64,30.04,10.0,SE,6.9,-,N/A,,Clear,130,2013-10-16 01:56:00
10:56 PM,61.0,48.0,62,30.03,10.0,SE,5.8,-,N/A,,Clear,140,2013-10-16 02:56:00
11:56 PM,59.0,46.9,64,30.02,10.0,SE,6.9,-,N/A,,Clear,140,2013-10-16 03:56:00